Year,Month,Day,Hour,Minute,Value (Times are PST for temperature in C)
2014,04,26,00,00,7.30
2014,04,26,00,01,7.30
2014,04,26,00,02,7.30
2014,04,26,00,03,7.30
2014,04,26,00,04,7.30
2014,04,26,00,05,7.30
2014,04,26,00,06,7.30
2014,04,26,00,07,7.30
2014,04,26,00,08,7.20
2014,04,26,00,09,7.20
2014,04,26,00,10,7.20
2014,04,26,00,11,7.20
2014,04,26,00,12,7.30
2014,04,26,00,13,7.30
2014,04,26,00,14,7.30
2014,04,26,00,15,7.30
2014,04,26,00,16,7.30
2014,04,26,00,17,7.30
2014,04,26,00,18,7.30
2014,04,26,00,19,7.30
2014,04,26,00,20,7.30
2014,04,26,00,21,7.30
2014,04,26,00,22,7.30
2014,04,26,00,23,7.30
2014,04,26,00,24,7.20
2014,04,26,00,25,7.20
2014,04,26,00,26,7.20
2014,04,26,00,27,7.20
2014,04,26,00,28,7.10
2014,04,26,00,29,7.10
2014,04,26,00,30,7.10
2014,04,26,00,31,7.10
2014,04,26,00,32,7.00
2014,04,26,00,33,7.00
2014,04,26,00,34,7.00
2014,04,26,00,35,7.00
2014,04,26,00,36,7.10
2014,04,26,00,37,7.10
2014,04,26,00,38,7.10
2014,04,26,00,39,7.10
2014,04,26,00,40,7.10
2014,04,26,00,41,7.10
2014,04,26,00,42,7.10
2014,04,26,00,43,7.10
2014,04,26,00,44,7.10
2014,04,26,00,45,7.10
2014,04,26,00,46,7.10
2014,04,26,00,47,7.00
2014,04,26,00,48,7.00
2014,04,26,00,49,7.00
2014,04,26,00,50,7.00
2014,04,26,00,51,6.90
2014,04,26,00,52,6.90
2014,04,26,00,53,6.90
2014,04,26,00,54,6.90
2014,04,26,00,55,6.90
2014,04,26,00,56,6.90
2014,04,26,00,57,6.90
2014,04,26,00,58,6.90
2014,04,26,00,59,6.90
2014,04,26,01,00,6.90
2014,04,26,01,01,6.80
2014,04,26,01,02,6.80
2014,04,26,01,03,6.80
2014,04,26,01,04,6.80
2014,04,26,01,05,6.80
2014,04,26,01,06,6.80
2014,04,26,01,07,6.80
2014,04,26,01,08,6.70
2014,04,26,01,09,6.70
2014,04,26,01,10,6.70
2014,04,26,01,11,6.70
2014,04,26,01,12,6.70
2014,04,26,01,13,6.70
2014,04,26,01,14,6.60
2014,04,26,01,15,6.60
2014,04,26,01,16,6.60
2014,04,26,01,17,6.50
2014,04,26,01,18,6.50
2014,04,26,01,19,6.40
2014,04,26,01,20,6.40
2014,04,26,01,21,6.30
2014,04,26,01,22,6.30
2014,04,26,01,23,6.30
2014,04,26,01,24,6.40
2014,04,26,01,25,6.40
2014,04,26,01,26,6.40
2014,04,26,01,27,6.40
2014,04,26,01,28,6.40
2014,04,26,01,29,6.40
2014,04,26,01,30,6.40
2014,04,26,01,31,6.40
2014,04,26,01,32,6.40
2014,04,26,01,33,6.40
2014,04,26,01,34,6.40
2014,04,26,01,35,6.40
2014,04,26,01,36,6.30
2014,04,26,01,37,6.30
2014,04,26,01,38,6.30
2014,04,26,01,39,6.30
2014,04,26,01,40,6.20
2014,04,26,01,41,6.20
2014,04,26,01,42,6.20
2014,04,26,01,43,6.20
2014,04,26,01,44,6.10
2014,04,26,01,45,6.00
2014,04,26,01,46,6.00
2014,04,26,01,47,5.90
2014,04,26,01,48,5.90
2014,04,26,01,49,5.90
2014,04,26,01,50,5.90
2014,04,26,01,51,5.90
2014,04,26,01,52,5.80
2014,04,26,01,53,5.80
2014,04,26,01,54,5.80
2014,04,26,01,55,5.80
2014,04,26,01,56,5.80
2014,04,26,01,57,5.80
2014,04,26,01,58,5.80
2014,04,26,01,59,5.80
2014,04,26,02,00,5.80
2014,04,26,02,01,5.80
2014,04,26,02,02,5.70
2014,04,26,02,03,5.70
2014,04,26,02,04,5.70
2014,04,26,02,05,5.70
2014,04,26,02,06,5.70
2014,04,26,02,07,5.60
2014,04,26,02,08,5.60
2014,04,26,02,09,5.50
2014,04,26,02,10,5.50
2014,04,26,02,11,5.50
2014,04,26,02,12,5.40
2014,04,26,02,13,5.40
2014,04,26,02,14,5.40
2014,04,26,02,15,5.40
2014,04,26,02,16,5.40
2014,04,26,02,17,5.40
2014,04,26,02,18,5.40
2014,04,26,02,19,5.40
2014,04,26,02,20,5.40
2014,04,26,02,21,5.40
2014,04,26,02,22,5.50
2014,04,26,02,23,5.50
2014,04,26,02,24,5.60
2014,04,26,02,25,5.60
2014,04,26,02,26,5.60
2014,04,26,02,27,5.60
2014,04,26,02,28,5.60
2014,04,26,02,29,5.50
2014,04,26,02,30,5.50
2014,04,26,02,31,5.50
2014,04,26,02,32,5.50
2014,04,26,02,33,5.50
2014,04,26,02,34,5.50
2014,04,26,02,35,5.50
2014,04,26,02,36,5.50
2014,04,26,02,37,5.50
2014,04,26,02,38,5.50
2014,04,26,02,39,5.50
2014,04,26,02,40,5.50
2014,04,26,02,41,5.40
2014,04,26,02,42,5.40
2014,04,26,02,43,5.40
2014,04,26,02,44,5.40
2014,04,26,02,45,5.30
2014,04,26,02,46,5.30
2014,04,26,02,47,5.30
2014,04,26,02,48,5.30
2014,04,26,02,49,5.30
2014,04,26,02,50,5.30
2014,04,26,02,51,5.30
2014,04,26,02,52,5.20
2014,04,26,02,53,5.20
2014,04,26,02,54,5.20
2014,04,26,02,55,5.20
2014,04,26,02,56,5.10
2014,04,26,02,57,5.10
2014,04,26,02,58,5.10
2014,04,26,02,59,5.00
2014,04,26,03,00,4.90
2014,04,26,03,01,4.90
2014,04,26,03,02,4.90
2014,04,26,03,03,4.80
2014,04,26,03,04,4.80
2014,04,26,03,05,4.80
2014,04,26,03,06,4.80
2014,04,26,03,07,4.80
2014,04,26,03,08,4.80
2014,04,26,03,09,4.90
2014,04,26,03,10,4.90
2014,04,26,03,11,4.90
2014,04,26,03,12,4.90
2014,04,26,03,13,4.90
2014,04,26,03,14,4.90
2014,04,26,03,15,4.90
2014,04,26,03,16,4.90
2014,04,26,03,17,4.90
2014,04,26,03,18,4.80
2014,04,26,03,19,4.80
2014,04,26,03,20,4.80
2014,04,26,03,21,4.80
2014,04,26,03,22,4.80
2014,04,26,03,23,4.80
2014,04,26,03,24,4.80
2014,04,26,03,25,4.80
2014,04,26,03,26,4.80
2014,04,26,03,27,4.80
2014,04,26,03,28,4.80
2014,04,26,03,29,4.80
2014,04,26,03,30,4.70
2014,04,26,03,31,4.70
2014,04,26,03,32,4.70
2014,04,26,03,33,4.70
2014,04,26,03,34,4.70
2014,04,26,03,35,4.70
2014,04,26,03,36,4.70
2014,04,26,03,37,4.70
2014,04,26,03,38,4.70
2014,04,26,03,39,4.70
2014,04,26,03,40,4.70
2014,04,26,03,41,4.70
2014,04,26,03,42,4.70
2014,04,26,03,43,4.70
2014,04,26,03,44,4.60
2014,04,26,03,45,4.60
2014,04,26,03,46,4.60
2014,04,26,03,47,4.60
2014,04,26,03,48,4.60
2014,04,26,03,49,4.70
2014,04,26,03,50,4.70
2014,04,26,03,51,4.70
2014,04,26,03,52,4.70
2014,04,26,03,53,4.70
2014,04,26,03,54,4.70
2014,04,26,03,55,4.70
2014,04,26,03,56,4.70
2014,04,26,03,57,4.80
2014,04,26,03,58,4.80
2014,04,26,03,59,4.90
2014,04,26,04,00,4.90
2014,04,26,04,01,5.00
2014,04,26,04,02,5.00
2014,04,26,04,03,5.00
2014,04,26,04,04,5.10
2014,04,26,04,05,5.10
2014,04,26,04,06,5.10
2014,04,26,04,07,5.10
2014,04,26,04,08,5.10
2014,04,26,04,09,5.10
2014,04,26,04,10,5.10
2014,04,26,04,11,5.10
2014,04,26,04,12,5.10
2014,04,26,04,13,5.10
2014,04,26,04,14,5.10
2014,04,26,04,15,5.10
2014,04,26,04,16,5.10
2014,04,26,04,17,5.10
2014,04,26,04,18,5.10
2014,04,26,04,19,5.10
2014,04,26,04,20,5.10
2014,04,26,04,21,5.10
2014,04,26,04,22,5.10
2014,04,26,04,23,5.10
2014,04,26,04,24,5.10
2014,04,26,04,25,5.10
2014,04,26,04,26,5.10
2014,04,26,04,27,5.10
2014,04,26,04,28,5.10
2014,04,26,04,29,5.10
2014,04,26,04,30,5.10
2014,04,26,04,31,5.10
2014,04,26,04,32,5.10
2014,04,26,04,33,5.00
2014,04,26,04,34,5.00
2014,04,26,04,35,5.00
2014,04,26,04,36,5.00
2014,04,26,04,37,5.00
2014,04,26,04,38,5.00
2014,04,26,04,39,5.00
2014,04,26,04,40,5.00
2014,04,26,04,41,4.90
2014,04,26,04,42,4.90
2014,04,26,04,43,4.90
2014,04,26,04,44,4.90
2014,04,26,04,45,4.90
2014,04,26,04,46,4.90
2014,04,26,04,47,4.90
2014,04,26,04,48,5.00
2014,04,26,04,49,5.00
2014,04,26,04,50,5.00
2014,04,26,04,51,5.00
2014,04,26,04,52,5.00
2014,04,26,04,53,5.00
2014,04,26,04,54,5.00
2014,04,26,04,55,5.10
2014,04,26,04,56,5.10
2014,04,26,04,57,5.10
2014,04,26,04,58,5.10
2014,04,26,04,59,5.20
2014,04,26,05,00,5.20
2014,04,26,05,01,5.20
2014,04,26,05,02,5.20
2014,04,26,05,03,5.20
2014,04,26,05,04,5.20
2014,04,26,05,05,5.20
2014,04,26,05,06,5.20
2014,04,26,05,07,5.30
2014,04,26,05,08,5.20
2014,04,26,05,09,5.20
2014,04,26,05,10,5.30
2014,04,26,05,11,5.30
2014,04,26,05,12,5.30
2014,04,26,05,13,5.30
2014,04,26,05,14,5.30
2014,04,26,05,15,5.30
2014,04,26,05,16,5.30
2014,04,26,05,17,5.30
2014,04,26,05,18,5.30
2014,04,26,05,19,5.30
2014,04,26,05,20,5.20
2014,04,26,05,21,5.10
2014,04,26,05,22,5.00
2014,04,26,05,23,5.00
2014,04,26,05,24,4.90
2014,04,26,05,25,4.80
2014,04,26,05,26,4.70
2014,04,26,05,27,4.70
2014,04,26,05,28,4.60
2014,04,26,05,29,4.60
2014,04,26,05,30,4.50
2014,04,26,05,31,4.50
2014,04,26,05,32,4.40
2014,04,26,05,33,4.30
2014,04,26,05,34,4.20
2014,04,26,05,35,4.20
2014,04,26,05,36,4.10
2014,04,26,05,37,4.10
2014,04,26,05,38,4.00
2014,04,26,05,39,4.00
2014,04,26,05,40,3.90
2014,04,26,05,41,3.90
2014,04,26,05,42,3.90
2014,04,26,05,43,3.90
2014,04,26,05,44,4.00
2014,04,26,05,45,4.00
2014,04,26,05,46,4.00
2014,04,26,05,47,4.10
2014,04,26,05,48,4.10
2014,04,26,05,49,4.10
2014,04,26,05,50,4.10
2014,04,26,05,51,4.10
2014,04,26,05,52,4.20
2014,04,26,05,53,4.20
2014,04,26,05,54,4.20
2014,04,26,05,55,4.20
2014,04,26,05,56,4.20
2014,04,26,05,57,4.20
2014,04,26,05,58,4.20
2014,04,26,05,59,4.20
2014,04,26,06,00,4.20
2014,04,26,06,01,4.30
2014,04,26,06,02,4.30
2014,04,26,06,03,4.30
2014,04,26,06,04,4.30
2014,04,26,06,05,4.30
2014,04,26,06,06,4.30
2014,04,26,06,07,4.30
2014,04,26,06,08,4.30
2014,04,26,06,09,4.30
2014,04,26,06,10,4.30
2014,04,26,06,11,4.30
2014,04,26,06,12,4.30
2014,04,26,06,13,4.30
2014,04,26,06,14,4.30
2014,04,26,06,15,4.30
2014,04,26,06,16,4.30
2014,04,26,06,17,4.40
2014,04,26,06,18,4.40
2014,04,26,06,19,4.40
2014,04,26,06,20,4.40
2014,04,26,06,21,4.40
2014,04,26,06,22,4.40
2014,04,26,06,23,4.50
2014,04,26,06,24,4.50
2014,04,26,06,25,4.50
2014,04,26,06,26,4.50
2014,04,26,06,27,4.60
2014,04,26,06,28,4.60
2014,04,26,06,29,4.60
2014,04,26,06,30,4.70
2014,04,26,06,31,4.70
2014,04,26,06,32,4.90
2014,04,26,06,33,5.00
2014,04,26,06,34,5.20
2014,04,26,06,35,5.30
2014,04,26,06,36,5.40
2014,04,26,06,37,5.50
2014,04,26,06,38,5.60
2014,04,26,06,39,5.70
2014,04,26,06,40,5.80
2014,04,26,06,41,5.90
2014,04,26,06,42,5.90
2014,04,26,06,43,6.00
2014,04,26,06,44,6.10
2014,04,26,06,45,6.10
2014,04,26,06,46,6.20
2014,04,26,06,47,6.20
2014,04,26,06,48,6.20
2014,04,26,06,49,6.30
2014,04,26,06,50,6.30
2014,04,26,06,51,6.40
2014,04,26,06,52,6.40
2014,04,26,06,53,6.50
2014,04,26,06,54,6.50
2014,04,26,06,55,6.50
2014,04,26,06,56,6.60
2014,04,26,06,57,6.60
2014,04,26,06,58,6.60
2014,04,26,06,59,6.60
2014,04,26,07,00,6.70
2014,04,26,07,01,6.70
2014,04,26,07,02,6.70
2014,04,26,07,03,6.70
2014,04,26,07,04,6.70
2014,04,26,07,05,6.80
2014,04,26,07,06,6.80
2014,04,26,07,07,6.80
2014,04,26,07,08,6.80
2014,04,26,07,09,6.80
2014,04,26,07,10,6.80
2014,04,26,07,11,6.80
2014,04,26,07,12,6.80
2014,04,26,07,13,6.80
2014,04,26,07,14,6.80
2014,04,26,07,15,6.80
2014,04,26,07,16,6.90
2014,04,26,07,17,6.90
2014,04,26,07,18,6.90
2014,04,26,07,19,7.00
2014,04,26,07,20,7.10
2014,04,26,07,21,7.20
2014,04,26,07,22,7.20
2014,04,26,07,23,7.30
2014,04,26,07,24,7.40
2014,04,26,07,25,7.50
2014,04,26,07,26,7.50
2014,04,26,07,27,7.60
2014,04,26,07,28,7.70
2014,04,26,07,29,7.70
2014,04,26,07,30,7.70
2014,04,26,07,31,7.80
2014,04,26,07,32,7.80
2014,04,26,07,33,7.80
2014,04,26,07,34,7.80
2014,04,26,07,35,7.90
2014,04,26,07,36,7.90
2014,04,26,07,37,7.90
2014,04,26,07,38,7.90
2014,04,26,07,39,8.00
2014,04,26,07,40,8.00
2014,04,26,07,41,8.00
2014,04,26,07,42,8.00
2014,04,26,07,43,8.10
2014,04,26,07,44,8.10
2014,04,26,07,45,8.10
2014,04,26,07,46,8.20
2014,04,26,07,47,8.20
2014,04,26,07,48,8.30
2014,04,26,07,49,8.30
2014,04,26,07,50,8.30
2014,04,26,07,51,8.30
2014,04,26,07,52,8.40
2014,04,26,07,53,8.40
2014,04,26,07,54,8.40
2014,04,26,07,55,8.50
2014,04,26,07,56,8.50
2014,04,26,07,57,8.60
2014,04,26,07,58,8.60
2014,04,26,07,59,8.60
2014,04,26,08,00,8.60
2014,04,26,08,01,8.60
2014,04,26,08,02,8.60
2014,04,26,08,03,8.60
2014,04,26,08,04,8.60
2014,04,26,08,05,8.70
2014,04,26,08,06,8.70
2014,04,26,08,07,8.70
2014,04,26,08,08,8.70
2014,04,26,08,09,8.80
2014,04,26,08,10,8.80
2014,04,26,08,11,8.90
2014,04,26,08,12,8.90
2014,04,26,08,13,8.90
2014,04,26,08,14,9.00
2014,04,26,08,15,9.10
2014,04,26,08,16,9.10
2014,04,26,08,17,9.10
2014,04,26,08,18,9.10
2014,04,26,08,19,9.20
2014,04,26,08,20,9.20
2014,04,26,08,21,9.20
2014,04,26,08,22,9.30
2014,04,26,08,23,9.30
2014,04,26,08,24,9.30
2014,04,26,08,25,9.40
2014,04,26,08,26,9.40
2014,04,26,08,27,9.40
2014,04,26,08,28,9.40
2014,04,26,08,29,9.50
2014,04,26,08,30,9.50
2014,04,26,08,31,9.50
2014,04,26,08,32,9.50
2014,04,26,08,33,9.60
2014,04,26,08,34,9.60
2014,04,26,08,35,9.70
2014,04,26,08,36,9.80
2014,04,26,08,37,9.80
2014,04,26,08,38,9.80
2014,04,26,08,39,9.90
2014,04,26,08,40,9.80
2014,04,26,08,41,9.90
2014,04,26,08,42,9.90
2014,04,26,08,43,9.90
2014,04,26,08,44,10.00
2014,04,26,08,45,10.00
2014,04,26,08,46,10.00
2014,04,26,08,47,9.80
2014,04,26,08,48,9.70
2014,04,26,08,49,9.70
2014,04,26,08,50,9.60
2014,04,26,08,51,9.50
2014,04,26,08,52,9.40
2014,04,26,08,53,9.30
2014,04,26,08,54,9.30
2014,04,26,08,55,9.30
2014,04,26,08,56,9.30
2014,04,26,08,57,9.30
2014,04,26,08,58,9.30
2014,04,26,08,59,9.20
2014,04,26,09,00,9.20
2014,04,26,09,01,9.20
2014,04,26,09,02,9.10
2014,04,26,09,03,9.10
2014,04,26,09,04,9.00
2014,04,26,09,05,9.10
2014,04,26,09,06,9.10
2014,04,26,09,07,9.10
2014,04,26,09,08,9.20
2014,04,26,09,09,9.40
2014,04,26,09,10,9.50
2014,04,26,09,11,9.60
2014,04,26,09,12,9.70
2014,04,26,09,13,9.70
2014,04,26,09,14,9.70
2014,04,26,09,15,9.80
2014,04,26,09,16,9.80
2014,04,26,09,17,9.80
2014,04,26,09,18,9.70
2014,04,26,09,19,9.70
2014,04,26,09,20,9.70
2014,04,26,09,21,9.70
2014,04,26,09,22,9.80
2014,04,26,09,23,9.80
2014,04,26,09,24,9.90
2014,04,26,09,25,9.90
2014,04,26,09,26,9.80
2014,04,26,09,27,9.80
2014,04,26,09,28,9.80
2014,04,26,09,29,9.70
2014,04,26,09,30,9.70
2014,04,26,09,31,9.70
2014,04,26,09,32,9.80
2014,04,26,09,33,9.70
2014,04,26,09,34,9.70
2014,04,26,09,35,9.70
2014,04,26,09,36,9.70
2014,04,26,09,37,9.70
2014,04,26,09,38,9.70
2014,04,26,09,39,9.70
2014,04,26,09,40,9.70
2014,04,26,09,41,9.70
2014,04,26,09,42,9.70
2014,04,26,09,43,9.70
2014,04,26,09,44,9.70
2014,04,26,09,45,9.70
2014,04,26,09,46,9.70
2014,04,26,09,47,9.70
2014,04,26,09,48,9.70
2014,04,26,09,49,9.80
2014,04,26,09,50,9.90
2014,04,26,09,51,9.90
2014,04,26,09,52,10.00
2014,04,26,09,53,10.00
2014,04,26,09,54,10.00
2014,04,26,09,55,9.90
2014,04,26,09,56,9.80
2014,04,26,09,57,9.70
2014,04,26,09,58,9.70
2014,04,26,09,59,9.70
2014,04,26,10,00,9.70
2014,04,26,10,01,9.70
2014,04,26,10,02,9.70
2014,04,26,10,03,9.80
2014,04,26,10,04,9.80
2014,04,26,10,05,9.80
2014,04,26,10,06,9.90
2014,04,26,10,07,9.90
2014,04,26,10,08,10.00
2014,04,26,10,09,10.00
2014,04,26,10,10,10.10
2014,04,26,10,11,10.10
2014,04,26,10,12,10.10
2014,04,26,10,13,10.00
2014,04,26,10,14,9.80
2014,04,26,10,15,9.80
2014,04,26,10,16,9.80
2014,04,26,10,17,9.80
2014,04,26,10,18,9.90
2014,04,26,10,19,10.00
2014,04,26,10,20,10.00
2014,04,26,10,21,9.80
2014,04,26,10,22,9.80
2014,04,26,10,23,9.80
2014,04,26,10,24,9.80
2014,04,26,10,25,9.90
2014,04,26,10,26,9.90
2014,04,26,10,27,9.80
2014,04,26,10,28,9.80
2014,04,26,10,29,9.90
2014,04,26,10,30,9.90
2014,04,26,10,31,9.80
2014,04,26,10,32,9.80
2014,04,26,10,33,9.60
2014,04,26,10,34,9.60
2014,04,26,10,35,9.60
2014,04,26,10,36,9.60
2014,04,26,10,37,9.60
2014,04,26,10,38,9.80
2014,04,26,10,39,9.90
2014,04,26,10,40,9.90
2014,04,26,10,41,9.80
2014,04,26,10,42,9.90
2014,04,26,10,43,9.90
2014,04,26,10,44,10.00
2014,04,26,10,45,10.10
2014,04,26,10,46,10.10
2014,04,26,10,47,10.20
2014,04,26,10,48,10.30
2014,04,26,10,49,10.40
2014,04,26,10,50,10.40
2014,04,26,10,51,10.30
2014,04,26,10,52,10.30
2014,04,26,10,53,10.30
2014,04,26,10,54,10.30
2014,04,26,10,55,10.20
2014,04,26,10,56,10.10
2014,04,26,10,57,10.00
2014,04,26,10,58,9.90
2014,04,26,10,59,9.80
2014,04,26,11,00,9.80
2014,04,26,11,01,9.80
2014,04,26,11,02,9.80
2014,04,26,11,03,9.80
2014,04,26,11,04,9.80
2014,04,26,11,05,9.80
2014,04,26,11,06,9.80
2014,04,26,11,07,9.70
2014,04,26,11,08,9.60
2014,04,26,11,09,9.50
2014,04,26,11,10,9.50
2014,04,26,11,11,9.60
2014,04,26,11,12,9.60
2014,04,26,11,13,9.60
2014,04,26,11,14,9.60
2014,04,26,11,15,9.50
2014,04,26,11,16,9.60
2014,04,26,11,17,9.60
2014,04,26,11,18,9.70
2014,04,26,11,19,9.70
2014,04,26,11,20,9.70
2014,04,26,11,21,9.60
2014,04,26,11,22,9.60
2014,04,26,11,23,9.60
2014,04,26,11,24,9.60
2014,04,26,11,25,9.60
2014,04,26,11,26,9.60
2014,04,26,11,27,9.70
2014,04,26,11,28,9.80
2014,04,26,11,29,9.80
2014,04,26,11,30,9.90
2014,04,26,11,31,10.00
2014,04,26,11,32,10.00
2014,04,26,11,33,9.90
2014,04,26,11,34,9.90
2014,04,26,11,35,9.80
2014,04,26,11,36,9.60
2014,04,26,11,37,9.50
2014,04,26,11,38,9.50
2014,04,26,11,39,9.50
2014,04,26,11,40,9.60
2014,04,26,11,41,9.70
2014,04,26,11,42,9.70
2014,04,26,11,43,9.70
2014,04,26,11,44,9.70
2014,04,26,11,45,9.70
2014,04,26,11,46,9.70
2014,04,26,11,47,9.60
2014,04,26,11,48,9.60
2014,04,26,11,49,9.50
2014,04,26,11,50,9.40
2014,04,26,11,51,9.50
2014,04,26,11,52,9.50
2014,04,26,11,53,9.50
2014,04,26,11,54,9.50
2014,04,26,11,55,9.50
2014,04,26,11,56,9.50
2014,04,26,11,57,9.50
2014,04,26,11,58,9.50
2014,04,26,11,59,9.60
2014,04,26,12,00,9.70
2014,04,26,12,01,9.60
2014,04,26,12,02,9.60
2014,04,26,12,03,9.60
2014,04,26,12,04,9.70
2014,04,26,12,05,9.60
2014,04,26,12,06,9.50
2014,04,26,12,07,9.50
2014,04,26,12,08,9.50
2014,04,26,12,09,9.60
2014,04,26,12,10,9.50
2014,04,26,12,11,9.50
2014,04,26,12,12,9.50
2014,04,26,12,13,9.60
2014,04,26,12,14,9.60
2014,04,26,12,15,9.60
2014,04,26,12,16,9.60
2014,04,26,12,17,9.60
2014,04,26,12,18,9.60
2014,04,26,12,19,9.60
2014,04,26,12,20,9.70
2014,04,26,12,21,9.70
2014,04,26,12,22,9.70
2014,04,26,12,23,9.80
2014,04,26,12,24,9.80
2014,04,26,12,25,9.70
2014,04,26,12,26,9.70
2014,04,26,12,27,9.60
2014,04,26,12,28,9.70
2014,04,26,12,29,9.80
2014,04,26,12,30,9.80
2014,04,26,12,31,9.80
2014,04,26,12,32,9.80
2014,04,26,12,33,10.00
2014,04,26,12,34,10.10
2014,04,26,12,35,10.20
2014,04,26,12,36,10.10
2014,04,26,12,37,10.00
2014,04,26,12,38,10.00
2014,04,26,12,39,9.90
2014,04,26,12,40,10.00
2014,04,26,12,41,10.00
2014,04,26,12,42,10.10
2014,04,26,12,43,10.10
2014,04,26,12,44,10.30
2014,04,26,12,45,10.30
2014,04,26,12,46,10.30
2014,04,26,12,47,10.20
2014,04,26,12,48,10.20
2014,04,26,12,49,10.20
2014,04,26,12,50,10.10
2014,04,26,12,51,10.10
2014,04,26,12,52,10.00
2014,04,26,12,53,10.00
2014,04,26,12,54,9.90
2014,04,26,12,55,9.90
2014,04,26,12,56,9.80
2014,04,26,12,57,9.80
2014,04,26,12,58,9.80
2014,04,26,12,59,9.80
2014,04,26,13,00,9.80
2014,04,26,13,01,9.80
2014,04,26,13,02,9.80
2014,04,26,13,03,9.80
2014,04,26,13,04,9.90
2014,04,26,13,05,10.00
2014,04,26,13,06,10.10
2014,04,26,13,07,10.10
2014,04,26,13,08,10.20
2014,04,26,13,09,10.20
2014,04,26,13,10,10.20
2014,04,26,13,11,10.10
2014,04,26,13,12,10.10
2014,04,26,13,13,10.20
2014,04,26,13,14,10.20
2014,04,26,13,15,10.10
2014,04,26,13,16,10.10
2014,04,26,13,17,10.00
2014,04,26,13,18,9.90
2014,04,26,13,19,9.90
2014,04,26,13,20,9.80
2014,04,26,13,21,9.80
2014,04,26,13,22,9.70
2014,04,26,13,23,9.80
2014,04,26,13,24,9.80
2014,04,26,13,25,9.80
2014,04,26,13,26,9.80
2014,04,26,13,27,9.80
2014,04,26,13,28,9.90
2014,04,26,13,29,10.00
2014,04,26,13,30,10.00
2014,04,26,13,31,10.10
2014,04,26,13,32,10.10
2014,04,26,13,33,10.10
2014,04,26,13,34,10.10
2014,04,26,13,35,10.20
2014,04,26,13,36,10.20
2014,04,26,13,37,10.30
2014,04,26,13,38,10.40
2014,04,26,13,39,10.40
2014,04,26,13,40,10.30
2014,04,26,13,41,10.20
2014,04,26,13,42,10.20
2014,04,26,13,43,10.20
2014,04,26,13,44,10.20
2014,04,26,13,45,10.20
2014,04,26,13,46,10.20
2014,04,26,13,47,10.30
2014,04,26,13,48,10.30
2014,04,26,13,49,10.30
2014,04,26,13,50,10.50
2014,04,26,13,51,10.50
2014,04,26,13,52,10.60
2014,04,26,13,53,10.60
2014,04,26,13,54,10.70
2014,04,26,13,55,10.80
2014,04,26,13,56,10.80
2014,04,26,13,57,10.90
2014,04,26,13,58,11.00
2014,04,26,13,59,11.10
2014,04,26,14,00,10.90
2014,04,26,14,01,10.80
2014,04,26,14,02,10.80
2014,04,26,14,03,10.60
2014,04,26,14,04,10.60
2014,04,26,14,05,10.60
2014,04,26,14,06,10.70
2014,04,26,14,07,10.80
2014,04,26,14,08,10.90
2014,04,26,14,09,11.00
2014,04,26,14,10,11.00
2014,04,26,14,11,11.00
2014,04,26,14,12,10.90
2014,04,26,14,13,10.80
2014,04,26,14,14,10.80
2014,04,26,14,15,10.80
2014,04,26,14,16,10.80
2014,04,26,14,17,10.80
2014,04,26,14,18,10.80
2014,04,26,14,19,10.70
2014,04,26,14,20,10.60
2014,04,26,14,21,10.60
2014,04,26,14,22,10.60
2014,04,26,14,23,10.70
2014,04,26,14,24,10.80
2014,04,26,14,25,10.90
2014,04,26,14,26,10.90
2014,04,26,14,27,11.00
2014,04,26,14,28,11.00
2014,04,26,14,29,11.10
2014,04,26,14,30,11.10
2014,04,26,14,31,11.20
2014,04,26,14,32,11.20
2014,04,26,14,33,11.20
2014,04,26,14,34,11.20
2014,04,26,14,35,11.20
2014,04,26,14,36,11.10
2014,04,26,14,37,11.10
2014,04,26,14,38,11.20
2014,04,26,14,39,11.20
2014,04,26,14,40,11.10
2014,04,26,14,41,11.20
2014,04,26,14,42,11.20
2014,04,26,14,43,11.20
2014,04,26,14,44,11.20
2014,04,26,14,45,11.20
2014,04,26,14,46,11.20
2014,04,26,14,47,11.30
2014,04,26,14,48,11.50
2014,04,26,14,49,11.60
2014,04,26,14,50,11.60
2014,04,26,14,51,11.70
2014,04,26,14,52,11.60
2014,04,26,14,53,11.60
2014,04,26,14,54,11.60
2014,04,26,14,55,11.60
2014,04,26,14,56,11.60
2014,04,26,14,57,11.50
2014,04,26,14,58,11.50
2014,04,26,14,59,11.50
2014,04,26,15,00,11.60
2014,04,26,15,01,11.50
2014,04,26,15,02,11.50
2014,04,26,15,03,11.50
2014,04,26,15,04,11.50
2014,04,26,15,05,11.60
2014,04,26,15,06,11.60
2014,04,26,15,07,11.70
2014,04,26,15,08,11.70
2014,04,26,15,09,11.80
2014,04,26,15,10,11.90
2014,04,26,15,11,12.00
2014,04,26,15,12,12.00
2014,04,26,15,13,11.90
2014,04,26,15,14,11.90
2014,04,26,15,15,11.90
2014,04,26,15,16,11.90
2014,04,26,15,17,11.90
2014,04,26,15,18,11.90
2014,04,26,15,19,11.90
2014,04,26,15,20,11.90
2014,04,26,15,21,11.90
2014,04,26,15,22,12.00
2014,04,26,15,23,12.00
2014,04,26,15,24,11.90
2014,04,26,15,25,11.90
2014,04,26,15,26,11.90
2014,04,26,15,27,12.00
2014,04,26,15,28,12.10
2014,04,26,15,29,12.10
2014,04,26,15,30,12.00
2014,04,26,15,31,12.10
2014,04,26,15,32,12.10
2014,04,26,15,33,12.10
2014,04,26,15,34,12.10
2014,04,26,15,35,12.00
2014,04,26,15,36,12.00
2014,04,26,15,37,12.00
2014,04,26,15,38,12.00
2014,04,26,15,39,12.00
2014,04,26,15,40,12.00
2014,04,26,15,41,11.90
2014,04,26,15,42,11.90
2014,04,26,15,43,11.90
2014,04,26,15,44,12.00
2014,04,26,15,45,12.00
2014,04,26,15,46,12.00
2014,04,26,15,47,12.10
2014,04,26,15,48,12.10
2014,04,26,15,49,12.10
2014,04,26,15,50,12.20
2014,04,26,15,51,12.20
2014,04,26,15,52,12.20
2014,04,26,15,53,12.10
2014,04,26,15,54,12.10
2014,04,26,15,55,12.20
2014,04,26,15,56,12.20
2014,04,26,15,57,12.30
2014,04,26,15,58,12.30
2014,04,26,15,59,12.30
2014,04,26,16,00,12.30
2014,04,26,16,01,12.30
2014,04,26,16,02,12.20
2014,04,26,16,03,12.10
2014,04,26,16,04,12.10
2014,04,26,16,05,12.00
2014,04,26,16,06,12.10
2014,04,26,16,07,12.10
2014,04,26,16,08,12.20
2014,04,26,16,09,12.40
2014,04,26,16,10,12.50
2014,04,26,16,11,12.60
2014,04,26,16,12,12.60
2014,04,26,16,13,12.50
2014,04,26,16,14,12.50
2014,04,26,16,15,12.30
2014,04,26,16,16,12.30
2014,04,26,16,17,12.20
2014,04,26,16,18,12.20
2014,04,26,16,19,12.20
2014,04,26,16,20,12.20
2014,04,26,16,21,12.30
2014,04,26,16,22,12.30
2014,04,26,16,23,12.20
2014,04,26,16,24,12.20
2014,04,26,16,25,12.10
2014,04,26,16,26,12.00
2014,04,26,16,27,11.90
2014,04,26,16,28,11.90
2014,04,26,16,29,11.80
2014,04,26,16,30,11.90
2014,04,26,16,31,11.90
2014,04,26,16,32,12.00
2014,04,26,16,33,12.10
2014,04,26,16,34,12.20
2014,04,26,16,35,12.20
2014,04,26,16,36,12.20
2014,04,26,16,37,12.30
2014,04,26,16,38,12.30
2014,04,26,16,39,12.30
2014,04,26,16,40,12.30
2014,04,26,16,41,12.40
2014,04,26,16,42,12.50
2014,04,26,16,43,12.50
2014,04,26,16,44,12.50
2014,04,26,16,45,12.50
2014,04,26,16,46,12.60
2014,04,26,16,47,12.60
2014,04,26,16,48,12.70
2014,04,26,16,49,12.60
2014,04,26,16,50,12.60
2014,04,26,16,51,12.60
2014,04,26,16,52,12.60
2014,04,26,16,53,12.50
2014,04,26,16,54,12.50
2014,04,26,16,55,12.40
2014,04,26,16,56,12.40
2014,04,26,16,57,12.30
2014,04,26,16,58,12.20
2014,04,26,16,59,12.10
2014,04,26,17,00,12.00
2014,04,26,17,01,12.00
2014,04,26,17,02,11.90
2014,04,26,17,03,11.90
2014,04,26,17,04,11.90
2014,04,26,17,05,11.90
2014,04,26,17,06,12.00
2014,04,26,17,07,12.00
2014,04,26,17,08,12.10
2014,04,26,17,09,12.10
2014,04,26,17,10,12.10
2014,04,26,17,11,12.10
2014,04,26,17,12,12.10
2014,04,26,17,13,12.20
2014,04,26,17,14,12.20
2014,04,26,17,15,12.20
2014,04,26,17,16,12.20
2014,04,26,17,17,12.20
2014,04,26,17,18,12.10
2014,04,26,17,19,12.10
2014,04,26,17,20,12.10
2014,04,26,17,21,12.10
2014,04,26,17,22,12.10
2014,04,26,17,23,12.10
2014,04,26,17,24,12.00
2014,04,26,17,25,12.00
2014,04,26,17,26,12.00
2014,04,26,17,27,11.90
2014,04,26,17,28,11.90
2014,04,26,17,29,11.90
2014,04,26,17,30,11.90
2014,04,26,17,31,11.90
2014,04,26,17,32,11.90
2014,04,26,17,33,11.90
2014,04,26,17,34,11.90
2014,04,26,17,35,12.00
2014,04,26,17,36,12.00
2014,04,26,17,37,12.00
2014,04,26,17,38,12.00
2014,04,26,17,39,12.00
2014,04,26,17,40,12.00
2014,04,26,17,41,12.00
2014,04,26,17,42,12.00
2014,04,26,17,43,12.00
2014,04,26,17,44,11.90
2014,04,26,17,45,11.90
2014,04,26,17,46,11.90
2014,04,26,17,47,11.90
2014,04,26,17,48,11.90
2014,04,26,17,49,11.90
2014,04,26,17,50,11.80
2014,04,26,17,51,11.80